STARLINK-1858 (47145 NORAD) Tracking and Keplerian Element Data

This shows tracking and keplerian element data for the satellite.

Feedback or suggestion? Click here.




ElementValue
Catalog47145
NameSTARLINK-1858
Epoch Orbit176
Epoch Day62.91667824
Epoch Year2021
RAAN229.9429
Inclination53.0542
Eccentricity0.0005433
Argument of Perigee267.6345
Mean Anonmoly199.9334
Mean Motion15.44033958
Decay Rate-0.00401191
L11 47145U 20088Z 21062.91667824 -.00401191 00000-0 -90944-2 0 9999
L22 47145 53.0542 229.9429 0005433 267.6345 199.9334 15.44033958 1761

Live tracking and technical data element details for STARLINK-1858 (NORAD 47145). STARLINK-1858 can be tracked NOW for your location showing map with azimuth and elevation plus other details from your city location.

Track the satellite on the map from your city or location and see movement details for azimuth, elevation, latitude, longitude, range, height, and movement on the map or in text.







IsCatalogInMostPopularTable: catalog: 47145, numindb: 34
Update: records affected: 1



GetName: 47145 STARLINK-1858

Hit Count: updated at: Fri, 05 Mar 2021 07:21:20 GMT